XM-3 (RHYTHM)

Last updated on Sun Nov 02 2025 00:02:46 GMT+0000 (Coordinated Universal Time)

1 28626U 05008A 25304.95572510 -.00000268 00000+0 00000+0 0 9990 2 28626 0.0617 69.7717 0000069 53.5233 197.2952 1.00273442 40331
UTC large
Height (km)
Speed (km/s)
/
Latitude / Longitude
Inclination (degrees)
Orbital Period (minutes)
Azimuth
Elevation
Range (km)
Doppler Factor

Next 0 passes for location: London (51.5072 / 0.1276)

Sorry there are no passes over London.